Content
SEND FEEDBACK

Daily
Averages
Monthly
Summary
Philippines

MANILA, PHILIPPINES


Home > Asia > Philippines
Elevation: 49 feet     Latitude: 14 31N     Longitude: 121 00E

WEATHER
 
SELECT A DAY
Number of Records: 172,604;   Date Range: 7/1/96 - 8/28/14
 
SHARE

PRINT THIS DATA

[ ← Previous Day ]
WEATHER ALMANAC - JANUARY 18, 2013
[ Next Day → ]
[ °C ]   °F
Weather ElementAverageHighLow
Temperature78.4 °F84.2 °F (2:00 pm)75.2 °F (6:00 am)
Dewpoint61.4 °F68 °F (10:00 pm)-54 °F (8:00 am)
Humidity60.7 %74 % (10:00 pm)4 % (8:00 am)
Barometer29.98 in30.04 in (8:00 am)29.72 in (11:00 pm)
Wind Speed7.9 mph13.8 mph (2:00 pm)
Weather ElementAverage
Visibility6 mi
Wind DirectionE (85 °)

Weather ElementTotal
Precipitation---
Cooling Degree Days14.7 (Base 65)
Growing Degree Days29.7 (Base 50)
Averaged from 30 records on January 18, 2013
WEATHER CONDITIONS BREAKOUT
WIND DIRECTION BREAKOUT
WEATHER BY HOUR - JANUARY 18, 2013
[ °C ]   °F
Local TimeTemperatureDewpointHumidityBarometerVisibilityWind DirectionWind SpeedGust SpeedPrecipitationEventsConditions
1:00 AM77.0 °F66.2 °F69 %29.98 in6.2 miENE (70°)3.5 mphMostly Cloudy
2:00 AM76.0 °F64.0 °F59 %29.98 in6.0 miEast (80°)6.7 mphHaze
2:00 AM77.0 °F64.4 °F65 %29.98 in6.2 miEast (80°)6.9 mphMostly Cloudy
3:00 AM77.0 °F64.4 °F65 %29.95 in6.2 miENE (70°)6.9 mphMostly Cloudy
4:00 AM77.0 °F64.4 °F65 %29.98 in6.2 miESE (120°)4.6 mphMostly Cloudy
5:00 AM76.0 °F65.0 °F60 %30.00 in6.0 miNE (50°)4.5 mphHaze
5:00 AM77.0 °F64.4 °F65 %29.98 in6.2 miNE (50°)4.6 mphMostly Cloudy
6:00 AM75.2 °F66.2 °F73 %30.01 in6.2 miSouth (190°)5.8 mphMostly Cloudy
7:00 AM75.2 °F66.2 °F73 %30.01 in5.6 miNNE (30°)6.9 mphMostly Cloudy
8:00 AM77.0 °F-54.0 °F4 %30.04 in6.0 miNorth (10°)2.2 mphHaze
8:00 AM77.0 °F64.4 °F65 %30.04 in5.6 miEast (100°)3.5 mphMostly Cloudy
9:00 AM78.8 °F64.4 °F61 %30.04 in5.0 miEast (90°)8.1 mphOvercast
10:00 AM78.8 °F64.4 °F61 %30.04 in5.6 miNNE (20°)5.8 mphMostly Cloudy
11:00 AM82.4 °F64.4 °F54 %30.01 in5.6 miEast (90°)4.6 mphMostly Cloudy
12:00 PM80.6 °F64.4 °F58 %29.98 in6.2 miVariable6.9 mphMostly Cloudy
1:00 PM80.6 °F64.4 °F58 %29.95 in5.0 miVariable6.9 mphMostly Cloudy
2:00 PM84.0 °F64.0 °F41 %29.94 in6.0 miEast (90°)13.4 mphHaze
2:00 PM84.2 °F64.4 °F51 %29.92 in6.2 miEast (90°)13.8 mphMostly Cloudy
3:00 PM84.2 °F64.4 °F51 %29.92 in5.6 miEast (90°)12.7 mphMostly Cloudy
4:00 PM82.4 °F64.4 °F54 %29.92 in6.2 miEast (100°)13.8 mphScattered Clouds
5:00 PM80.0 °F66.0 °F54 %29.94 in6.0 miESE (110°)11.2 mphHaze
5:00 PM78.8 °F66.2 °F65 %29.95 in6.2 miESE (110°)11.5 mphPartly Cloudy
6:00 PM77.0 °F66.2 °F69 %29.98 in6.2 miESE (110°)9.2 mphScattered Clouds
7:00 PM77.0 °F66.2 °F69 %29.98 in6.2 miESE (120°)9.2 mphScattered Clouds
8:00 PM78.0 °F66.0 °F58 %30.01 in6.0 miESE (120°)8.9 mphHaze
8:00 PM77.0 °F66.2 °F69 %30.01 in6.2 miESE (120°)9.2 mphMostly Cloudy
9:00 PM77.0 °F66.2 °F69 %30.01 in6.2 miESE (110°)9.2 mphMostly Cloudy
10:00 PM77.0 °F68.0 °F74 %30.01 in6.2 miESE (110°)9.2 mphMostly Cloudy
11:00 PM76.0 °F67.0 °F68 %29.72 in6.0 miESE (110°)8.9 mphHaze
11:00 PM77.0 °F68.0 °F74 %30.01 in6.2 miESE (110°)9.2 mphMostly Cloudy
Hourly data recorded from RPLL, located miles away from Manila, Philippines







STORIES FROM OUR PARTNERS